WMT4KY LUKK-LROP

Flight info

Callsign WMT4KY
Flight time N/A
Altitude 28000
Route LIPTA T34 KODRU DCT DENAK
Aircraft A20N/M-SDE2E3FGHIRWXY/LB1

Departure

Time 2026-05-05 16:06
Airport Chişinău International Airport (LUKK)

Arrival

Time N/A
Airport Bucharest Henri Coandă International Airport (LROP)
Time Latitude Longitude Altitude Speed Heading
2026-05-05 15:45 46.93414 28.93101 332 ft 0 kts 187°
2026-05-05 15:56 46.93417 28.93102 332 ft 2 kts 187°
2026-05-05 15:57 46.93431 28.93104 328 ft 2 kts 187°
2026-05-05 15:57 46.93445 28.93107 330 ft 2 kts 196°
2026-05-05 15:57 46.93458 28.93117 331 ft 2 kts 240°
2026-05-05 15:57 46.93460 28.93122 331 ft 0 kts 252°
2026-05-05 15:59 46.93460 28.93121 331 ft 2 kts 252°
2026-05-05 16:00 46.93457 28.93059 327 ft 11 kts 277°
2026-05-05 16:00 46.93475 28.92906 324 ft 19 kts 278°
2026-05-05 16:00 46.93470 28.92744 320 ft 16 kts 255°
2026-05-05 16:00 46.93473 28.92547 315 ft 20 kts 264°
2026-05-05 16:01 46.93475 28.92352 308 ft 21 kts 275°
2026-05-05 16:01 46.93487 28.92154 302 ft 20 kts 281°
2026-05-05 16:01 46.93458 28.92041 298 ft 11 kts 157°
2026-05-05 16:01 46.93358 28.92039 294 ft 20 kts 179°
2026-05-05 16:02 46.93197 28.92027 296 ft 24 kts 195°
2026-05-05 16:02 46.93053 28.91992 316 ft 15 kts 182°
2026-05-05 16:02 46.92994 28.91992 333 ft 7 kts 173°
2026-05-05 16:02 46.92915 28.91984 364 ft 5 kts 151°
2026-05-05 16:03 46.92888 28.91989 364 ft 0 kts 172°
2026-05-05 16:04 46.92825 28.92003 372 ft 19 kts 176°
2026-05-05 16:04 46.92755 28.91865 377 ft 24 kts 270°
2026-05-05 16:04 46.92748 28.91479 388 ft 50 kts 268°
2026-05-05 16:04 46.92742 28.91105 397 ft 26 kts 266°
2026-05-05 16:05 46.92749 28.90861 403 ft 20 kts 294°
2026-05-05 16:05 46.92754 28.90757 404 ft 8 kts 182°
2026-05-05 16:05 46.92734 28.90853 402 ft 0 kts 88°
2026-05-05 16:05 46.92734 28.90856 401 ft 0 kts 88°
2026-05-05 16:06 46.92735 28.90893 398 ft 17 kts 88°
2026-05-05 16:06 46.92752 28.91624 384 ft 128 kts 88°
2026-05-05 16:06 46.92797 28.93320 599 ft 192 kts 87°
2026-05-05 16:06 46.92860 28.95368 1402 ft 212 kts 89°
2026-05-05 16:07 46.92896 28.97617 2206 ft 236 kts 90°
2026-05-05 16:07 46.92933 29.00134 3246 ft 257 kts 90°
2026-05-05 16:07 46.92975 29.02800 4491 ft 266 kts 88°
2026-05-05 16:07 46.92978 29.05527 5921 ft 267 kts 95°
2026-05-05 16:08 46.92361 29.08078 7421 ft 272 kts 120°
2026-05-05 16:08 46.90985 29.10052 8684 ft 287 kts 146°
2026-05-05 16:08 46.89062 29.11001 9956 ft 301 kts 171°
2026-05-05 16:08 46.86918 29.10726 10870 ft 325 kts 195°
2026-05-05 16:09 46.84807 29.09233 11506 ft 351 kts 213°
2026-05-05 16:09 46.82844 29.06943 12287 ft 367 kts 223°
2026-05-05 16:09 46.81009 29.04309 13393 ft 373 kts 227°
2026-05-05 16:09 46.79205 29.01537 14393 ft 380 kts 227°
2026-05-05 16:10 46.77380 28.98706 15375 ft 386 kts 227°
2026-05-05 16:10 46.75517 28.95837 16337 ft 392 kts 227°
2026-05-05 16:10 46.73617 28.92943 17298 ft 398 kts 226°
2026-05-05 16:10 46.71678 28.90010 18212 ft 405 kts 226°
2026-05-05 16:11 46.69707 28.87043 19068 ft 409 kts 226°
2026-05-05 16:11 46.63677 28.78003 21693 ft 420 kts 226°
2026-05-05 16:12 46.61631 28.74941 22497 ft 425 kts 226°
2026-05-05 16:12 46.57488 28.68748 24017 ft 434 kts 226°
2026-05-05 16:13 46.51111 28.59244 26084 ft 443 kts 226°
2026-05-05 16:13 46.48948 28.56028 26691 ft 447 kts 226°
2026-05-05 16:13 46.46765 28.52785 27304 ft 451 kts 226°
2026-05-05 16:14 46.42308 28.46175 27980 ft 470 kts 226°
2026-05-05 16:14 46.37589 28.39193 27991 ft 498 kts 226°
2026-05-05 16:15 46.32660 28.31921 27991 ft 511 kts 226°
2026-05-05 16:15 46.27644 28.24543 27990 ft 516 kts 226°
2026-05-05 16:16 46.22733 28.17337 27993 ft 505 kts 226°
2026-05-05 16:16 46.17971 28.10369 27991 ft 463 kts 226°
2026-05-05 16:17 46.13475 28.03807 27993 ft 464 kts 226°
2026-05-05 16:17 46.11211 28.00506 27993 ft 463 kts 226°
2026-05-05 16:18 46.04408 27.90633 27997 ft 463 kts 226°
2026-05-05 16:18 45.99874 27.84053 27995 ft 464 kts 226°
2026-05-05 16:19 45.97599 27.80759 27993 ft 464 kts 226°
2026-05-05 16:19 45.95324 27.77471 27993 ft 464 kts 226°
2026-05-05 16:19 45.90774 27.70909 27993 ft 464 kts 226°
2026-05-05 16:20 45.86216 27.64351 27993 ft 463 kts 226°
2026-05-05 16:20 45.81650 27.57800 27993 ft 464 kts 226°
2026-05-05 16:21 45.77089 27.51270 27993 ft 464 kts 226°
2026-05-05 16:22 45.70265 27.41530 27991 ft 464 kts 226°